Dutch Harbor, AK

10:54 AM AKDT on March 27, 2017 (GMT -0800)
Unalaska

Weather History for PADU - May, 2013

Change the Weather History Date:

Wednesday, May 1, 2013

  Actual Average Record
Temperature  
Mean Temperature 34 °F -  
Max Temperature 36 °F 41 °F 53 °F (1951)
Min Temperature 33 °F 32 °F 27 °F (1982)
Degree Days  
Heating Degree Days 30    
Moisture  
Dew Point 30 °F    
Average Humidity 84    
Maximum Humidity 93    
Minimum Humidity 70    
Precipitation  
Precipitation 0.48 in - - ()
Sea Level Pressure  
Sea Level Pressure 29.66 in    
Wind  
Wind Speed 13 mph (North)    
Max Wind Speed 21 mph    
Max Gust Speed 30 mph    
Visibility 5 miles    
Events Rain , Snow    
Averages and records for this station are not official NWS values.
T = Trace of Precipitation, MM = Missing Value Source: NWS Daily Summary

Daily Weather History Graph

Daily Weather History Graph

Search for Another Location

Airport or City:

Trip Planner

Search our weather history database for the weather conditions in past years. The results will help you decide how hot, cold, wet, or windy it might be!

Date:

Astronomy

May. 01, 2013 Rise Set
Actual Time 7:29 AM AKDT 10:38 PM AKDT
Civil Twilight 6:47 AM AKDT 11:20 PM AKDT
Nautical Twilight 5:52 AM AKDT 12:15 AM AKDT
Astronomical Twilight 4:37 AM AKDT 1:33 AM AKDT
Moon 3:56 AM AKDT (5/1) 1:24 PM AKDT (5/1)
Length of Visible Light 16h 32m
Length of Day
15h 09m
Waning Gibbous, 57% of the Moon is Illuminated
May 1
Waning Gibbous
May 2
Last Quarter
May 9
New
May 17
First Quarter
May 24
Full

Hourly Weather History & Observations

Time (AKDT) Temp. Windchill Dew Point Humidity Pressure Visibility Wind Dir Wind Speed Gust Speed Precip Events Conditions
12:28 AM 35.6 °F 26.6 °F 33.8 °F 93% 29.59 in 6.0 mi NE 13.8 mph 21.9 mph 0.01 in Rain Light Rain
12:56 AM 36.0 °F 26.7 °F 33.1 °F 89% 29.61 in 8.0 mi NNE 15.0 mph - 0.03 in Rain Light Rain
1:56 AM 36.0 °F 26.0 °F 33.1 °F 89% 29.61 in 6.0 mi NE 17.3 mph - 0.01 in Rain Light Rain
2:56 AM 35.1 °F 24.8 °F 32.0 °F 89% 29.61 in 5.0 mi NE 17.3 mph - 0.00 in Snow Light Snow
3:56 AM 36.0 °F 27.5 °F 32.0 °F 86% 29.61 in 7.0 mi NNE 12.7 mph - 0.07 in Snow Light Snow
4:48 AM 35.6 °F 25.5 °F 30.2 °F 81% 29.59 in 4.0 mi NNE 17.3 mph 25.3 mph 0.05 in Snow Light Snow
4:49 AM 35.1 °F 24.5 °F 30.9 °F 85% 29.61 in 4.0 mi NNE 18.4 mph 25.3 mph 0.05 in Snow Light Snow
5:04 AM 35.6 °F 25.2 °F 30.2 °F 81% 29.59 in 3.0 mi North 18.4 mph 27.6 mph 0.00 in Snow Light Snow
5:22 AM 33.8 °F 23.5 °F 30.2 °F 87% 29.60 in 3.0 mi NNE 16.1 mph 20.7 mph 0.01 in Snow Light Snow
5:27 AM 33.8 °F 23.9 °F 30.2 °F 87% 29.60 in 2.5 mi North 15.0 mph 20.7 mph 0.01 in Snow Light Snow
5:56 AM 34.0 °F 25.5 °F 30.9 °F 89% 29.62 in 2.5 mi NNE 11.5 mph 21.9 mph 0.03 in Snow Light Snow
6:12 AM 33.8 °F 22.2 °F 30.2 °F 87% 29.60 in 3.0 mi NNE 20.7 mph 28.8 mph 0.01 in Snow Light Snow
6:25 AM 33.8 °F 22.8 °F 30.2 °F 87% 29.60 in 2.0 mi NNE 18.4 mph 25.3 mph 0.01 in Snow Light Snow
6:56 AM 34.0 °F 23.8 °F 30.9 °F 89% 29.62 in 2.0 mi NNE 16.1 mph 23.0 mph 0.03 in Snow Light Snow
7:06 AM 33.8 °F 26.4 °F 30.2 °F 87% 29.61 in 2.0 mi North 9.2 mph 24.2 mph 0.00 in Snow Light Snow
7:23 AM 33.8 °F 23.2 °F 30.2 °F 87% 29.61 in 3.0 mi NE 17.3 mph 23.0 mph 0.01 in Snow Light Snow
7:27 AM 33.8 °F 29.6 °F 30.2 °F 87% 29.61 in 3.0 mi Variable 4.6 mph 23.0 mph 0.01 in Snow Light Snow
7:37 AM 33.8 °F 28.6 °F 30.2 °F 87% 29.61 in 1.0 mi Variable 5.8 mph 25.3 mph 0.02 in Snow Light Snow
7:56 AM 34.0 °F 25.0 °F 30.9 °F 89% 29.63 in 1.0 mi NW 12.7 mph 21.9 mph 0.05 in Snow Light Snow
8:10 AM 33.8 °F 24.3 °F 30.2 °F 87% 29.62 in 1.0 mi North 13.8 mph 19.6 mph 0.02 in Snow Light Snow
8:56 AM 34.0 °F 31.0 °F 30.9 °F 89% 29.65 in 1.0 mi Variable 3.5 mph 20.7 mph 0.07 in Snow Light Snow
9:56 AM 34.0 °F 27.2 °F 30.9 °F 89% 29.66 in 0.8 mi North 8.1 mph 23.0 mph 0.06 in Snow Light Snow
10:23 AM 33.8 °F - 30.2 °F 87% 29.64 in 1.0 mi Calm Calm - 0.03 in Snow Light Snow
10:56 AM 34.0 °F 25.0 °F 30.9 °F 89% 29.67 in 1.0 mi North 12.7 mph 18.4 mph 0.04 in Snow Light Snow
11:03 AM 33.8 °F 26.4 °F 30.2 °F 87% 29.65 in 1.2 mi NNW 9.2 mph 18.4 mph 0.00 in Snow Light Snow
11:56 AM 34.0 °F 25.5 °F 30.9 °F 89% 29.68 in 1.8 mi North 11.5 mph 18.4 mph 0.04 in Snow Light Snow
12:13 PM 33.8 °F 25.3 °F 30.2 °F 87% 29.67 in 2.5 mi NNW 11.5 mph 29.9 mph 0.00 in Snow Light Snow
12:43 PM 33.8 °F 26.4 °F 30.2 °F 87% 29.68 in 1.8 mi North 9.2 mph 19.6 mph 0.00 in   Overcast
12:56 PM 34.0 °F 29.8 °F 30.0 °F 85% 29.70 in 1.5 mi Variable 4.6 mph 18.4 mph 0.00 in Snow Light Snow
1:05 PM 33.8 °F 25.8 °F 30.2 °F 87% 29.68 in 3.0 mi NNW 10.4 mph - 0.00 in Snow Light Snow
1:28 PM 33.8 °F 27.7 °F 30.2 °F 87% 29.68 in 6.0 mi Variable 6.9 mph 19.6 mph 0.00 in Snow Light Snow
1:56 PM 34.0 °F 26.6 °F 28.9 °F 82% 29.70 in 6.0 mi East 9.2 mph 24.2 mph 0.00 in Rain Light Rain
2:56 PM 35.1 °F 25.5 °F 28.9 °F 78% 29.70 in 10.0 mi North 15.0 mph 20.7 mph 0.00 in Rain Light Rain
3:56 PM 34.0 °F 28.0 °F 28.9 °F 82% 29.71 in 8.0 mi Variable 6.9 mph - 0.00 in   Overcast
4:35 PM 35.6 °F 28.0 °F 28.4 °F 75% 29.71 in 10.0 mi NNE 10.4 mph 17.3 mph 0.00 in   Overcast
4:56 PM 34.0 °F 28.0 °F 28.9 °F 82% 29.73 in 6.0 mi Variable 6.9 mph - 0.00 in Rain Light Rain
5:37 PM 33.8 °F 29.6 °F 28.4 °F 81% 29.72 in 10.0 mi Variable 4.6 mph - 0.00 in   Overcast
5:56 PM 34.0 °F 24.2 °F 28.0 °F 79% 29.74 in 10.0 mi North 15.0 mph 18.4 mph 0.00 in   Overcast
6:56 PM 34.0 °F 27.2 °F 27.0 °F 75% 29.75 in 10.0 mi NNE 8.1 mph 20.7 mph 0.00 in Rain Light Rain
7:56 PM 34.0 °F 28.8 °F 27.0 °F 75% 29.77 in 10.0 mi Variable 5.8 mph - 0.00 in   Overcast
8:56 PM 34.0 °F 25.5 °F 27.0 °F 75% 29.77 in 10.0 mi NNW 11.5 mph 24.2 mph 0.00 in Rain Light Rain
9:56 PM 34.0 °F 25.0 °F 25.0 °F 70% 29.79 in 10.0 mi North 12.7 mph 28.8 mph 0.00 in   Overcast
10:56 PM 33.1 °F 28.7 °F 24.1 °F 70% 29.82 in 10.0 mi Variable 4.6 mph - 0.00 in   Overcast
11:56 PM 33.1 °F 22.6 °F 24.1 °F 70% 29.84 in 10.0 mi NNW 16.1 mph 23.0 mph 0.00 in   Overcast